• Em Portugal
  • Lista de países
  • Para 7 dias
  • Temperatura da água
  • Mapas de satélite
  • Mapa do tempo
  • Widgets de tempo
  • user-avatar
    Iniciar Sessão

    Previsão horária em Ghanzi

    Hoje, 26 Maio, Sábado

    Tempo Temperatura Precipitação Vento Pressão Humidade
    00:00 +35°C° 0 mm 6 m/s 712 mmHg 14%
    01:00 +34°C° 0 mm 6 m/s 712 mmHg 15%
    02:00 +33°C° 0 mm 6 m/s 712 mmHg 17%
    03:00 +32°C° 0 mm 5 m/s 712 mmHg 19%
    04:00 +32°C° 0 mm 5 m/s 712 mmHg 21%
    05:00 +33°C° 0 mm 6 m/s 713 mmHg 20%
    06:00 +33°C° 0 mm 6 m/s 713 mmHg 20%
    07:00 +34°C° 0 mm 6 m/s 714 mmHg 19%
    08:00 +36°C° 0 mm 6 m/s 714 mmHg 17%
    09:00 +39°C° 0 mm 6 m/s 714 mmHg 14%
    10:00 +41°C° 0 mm 5 m/s 714 mmHg 12%
    11:00 +42°C° 0 mm 5 m/s 714 mmHg 11%
    12:00 +43°C° 0 mm 4 m/s 713 mmHg 10%
    13:00 +44°C° 0 mm 4 m/s 713 mmHg 9%
    14:00 +44°C° 0 mm 4 m/s 713 mmHg 9%
    15:00 +45°C° 0 mm 5 m/s 712 mmHg 9%
    16:00 +45°C° 0 mm 5 m/s 712 mmHg 9%
    17:00 +42°C° 0 mm 6 m/s 712 mmHg 10%
    18:00 +40°C° 0 mm 6 m/s 712 mmHg 11%
    19:00 +39°C° 0 mm 6 m/s 712 mmHg 12%
    20:00 +38°C° 0 mm 7 m/s 712 mmHg 14%
    21:00 +36°C° 0 mm 7 m/s 713 mmHg 15%
    22:00 +35°C° 0 mm 7 m/s 713 mmHg 16%
    23:00 +33°C° 0 mm 8 m/s 713 mmHg 16%

    Amanhã, 27 Maio, Domingo

    Tempo Temperatura Precipitação Vento Pressão Humidade
    00:00 +32°C° 0 mm 8 m/s 713 mmHg 16%
    01:00 +31°C° 0 mm 9 m/s 713 mmHg 16%
    02:00 +29°C° 0 mm 8 m/s 713 mmHg 16%
    03:00 +29°C° 0 mm 7 m/s 713 mmHg 17%
    04:00 +28°C° 0 mm 7 m/s 713 mmHg 17%
    05:00 +28°C° 0 mm 7 m/s 714 mmHg 17%
    06:00 +29°C° 0 mm 8 m/s 714 mmHg 17%
    07:00 +31°C° 0 mm 8 m/s 715 mmHg 17%
    08:00 +33°C° 0 mm 8 m/s 715 mmHg 15%
    09:00 +34°C° 0 mm 8 m/s 715 mmHg 13%
    10:00 +36°C° 0 mm 7 m/s 715 mmHg 12%
    11:00 +38°C° 0 mm 7 m/s 715 mmHg 10%
    12:00 +39°C° 0 mm 7 m/s 714 mmHg 9%
    13:00 +40°C° 0 mm 7 m/s 714 mmHg 8%
    14:00 +40°C° 0 mm 7 m/s 714 mmHg 8%
    15:00 +40°C° 0 mm 7 m/s 713 mmHg 8%
    16:00 +40°C° 0 mm 7 m/s 713 mmHg 8%
    17:00 +38°C° 0 mm 7 m/s 713 mmHg 10%
    18:00 +35°C° 0 mm 6 m/s 713 mmHg 11%
    19:00 +34°C° 0 mm 5 m/s 713 mmHg 13%
    20:00 +33°C° 0 mm 6 m/s 714 mmHg 14%
    21:00 +32°C° 0 mm 6 m/s 714 mmHg 16%
    22:00 +30°C° 0 mm 6 m/s 715 mmHg 17%
    23:00 +30°C° 0 mm 6 m/s 714 mmHg 19%

    Depois de amanhã, 28 Maio, Segunda-feira

    Tempo Temperatura Precipitação Vento Pressão Humidade
    00:00 +29°C° 0 mm 6 m/s 714 mmHg 20%
    01:00 +28°C° 0 mm 6 m/s 714 mmHg 22%
    02:00 +27°C° 0 mm 6 m/s 714 mmHg 24%
    03:00 +27°C° 0 mm 6 m/s 714 mmHg 26%
    04:00 +26°C° 0 mm 5 m/s 714 mmHg 29%
    05:00 +27°C° 0 mm 6 m/s 715 mmHg 28%
    06:00 +28°C° 0 mm 7 m/s 715 mmHg 28%
    07:00 +29°C° 0 mm 7 m/s 716 mmHg 27%
    08:00 +30°C° 0 mm 7 m/s 716 mmHg 24%
    09:00 +33°C° 0 mm 6 m/s 716 mmHg 21%
    10:00 +34°C° 0 mm 6 m/s 716 mmHg 18%
    11:00 +35°C° 0 mm 5 m/s 716 mmHg 16%
    12:00 +36°C° 0 mm 5 m/s 715 mmHg 14%
    13:00 +37°C° 0 mm 5 m/s 715 mmHg 12%
    14:00 +39°C° 0 mm 5 m/s 714 mmHg 12%
    15:00 +39°C° 0 mm 5 m/s 714 mmHg 11%
    16:00 +39°C° 0 mm 5 m/s 714 mmHg 11%
    17:00 +36°C° 0 mm 5 m/s 714 mmHg 12%
    18:00 +35°C° 0 mm 4 m/s 714 mmHg 13%
    19:00 +33°C° 0 mm 4 m/s 714 mmHg 14%
    20:00 +33°C° 0 mm 4 m/s 714 mmHg 16%
    21:00 +32°C° 0 mm 5 m/s 714 mmHg 17%
    22:00 +30°C° 0 mm 5 m/s 715 mmHg 19%
    23:00 +29°C° 0 mm 6 m/s 714 mmHg 20%

    29 Maio, Terça-feira

    Tempo Temperatura Precipitação Vento Pressão Humidade
    00:00 +29°C° 0 mm 6 m/s 714 mmHg 21%
    01:00 +28°C° 0 mm 6 m/s 714 mmHg 23%
    02:00 +27°C° 0 mm 6 m/s 714 mmHg 23%
    03:00 +27°C° 0 mm 5 m/s 714 mmHg 22%
    04:00 +26°C° 0 mm 5 m/s 714 mmHg 22%
    05:00 +27°C° 0 mm 5 m/s 714 mmHg 21%
    06:00 +28°C° 0 mm 6 m/s 715 mmHg 21%
    07:00 +29°C° 0 mm 6 m/s 715 mmHg 20%
    08:00 +32°C° 0 mm 6 m/s 716 mmHg 18%
    09:00 +33°C° 0 mm 6 m/s 716 mmHg 16%
    10:00 +35°C° 0 mm 6 m/s 716 mmHg 14%
    11:00 +36°C° 0 mm 5 m/s 716 mmHg 13%
    12:00 +37°C° 0 mm 5 m/s 715 mmHg 12%
    13:00 +39°C° 0 mm 5 m/s 715 mmHg 10%
    14:00 +39°C° 0 mm 5 m/s 714 mmHg 10%
    15:00 +39°C° 0 mm 5 m/s 714 mmHg 10%
    16:00 +39°C° 0 mm 5 m/s 713 mmHg 10%
    17:00 +37°C° 0 mm 4 m/s 713 mmHg 11%
    18:00 +35°C° 0 mm 4 m/s 713 mmHg 12%
    19:00 +33°C° 0 mm 4 m/s 713 mmHg 14%
    20:00 +33°C° 0 mm 4 m/s 714 mmHg 15%
    21:00 +32°C° 0 mm 4 m/s 714 mmHg 16%
    22:00 +30°C° 0 mm 4 m/s 714 mmHg 17%
    23:00 +29°C° 0 mm 4 m/s 714 mmHg 18%

    30 Maio, Quarta-feira

    Tempo Temperatura Precipitação Vento Pressão Humidade
    00:00 +29°C° 0 mm 5 m/s 713 mmHg 20%
    01:00 +28°C° 0 mm 5 m/s 713 mmHg 21%
    02:00 +28°C° 0 mm 5 m/s 713 mmHg 22%
    03:00 +27°C° 0 mm 4 m/s 713 mmHg 24%
    04:00 +26°C° 0 mm 4 m/s 713 mmHg 25%
    05:00 +28°C° 0 mm 5 m/s 714 mmHg 24%
    06:00 +29°C° 0 mm 5 m/s 714 mmHg 23%
    07:00 +30°C° 0 mm 5 m/s 715 mmHg 22%
    08:00 +33°C° 0 mm 5 m/s 715 mmHg 19%
    09:00 +35°C° 0 mm 4 m/s 715 mmHg 17%
    10:00 +36°C° 0 mm 3 m/s 716 mmHg 14%
    11:00 +37°C° 0 mm 3 m/s 715 mmHg 13%
    12:00 +38°C° 0 mm 4 m/s 715 mmHg 11%
    13:00 +40°C° 0 mm 4 m/s 714 mmHg 10%
    14:00 +40°C° 0 mm 4 m/s 714 mmHg 10%
    15:00 +41°C° 0 mm 4 m/s 714 mmHg 9%
    16:00 +41°C° 0 mm 4 m/s 713 mmHg 9%
    17:00 +38°C° 0 mm 4 m/s 713 mmHg 10%
    18:00 +37°C° 0 mm 4 m/s 714 mmHg 11%
    19:00 +35°C° 0 mm 4 m/s 714 mmHg 13%
    20:00 +34°C° 0 mm 4 m/s 714 mmHg 13%
    21:00 +33°C° 0 mm 4 m/s 714 mmHg 14%
    22:00 +32°C° 0 mm 4 m/s 715 mmHg 15%
    23:00 +32°C° 0 mm 4 m/s 714 mmHg 16%

    31 Maio, Quinta-feira

    Tempo Temperatura Precipitação Vento Pressão Humidade
    00:00 +30°C° 0 mm 4 m/s 714 mmHg 17%
    01:00 +29°C° 0 mm 4 m/s 714 mmHg 18%
    02:00 +29°C° 0 mm 4 m/s 714 mmHg 18%
    03:00 +28°C° 0 mm 4 m/s 714 mmHg 19%
    04:00 +28°C° 0 mm 4 m/s 714 mmHg 19%
    05:00 +29°C° 0 mm 4 m/s 715 mmHg 18%
    06:00 +30°C° 0 mm 4 m/s 715 mmHg 17%
    07:00 +32°C° 0 mm 4 m/s 716 mmHg 16%
    08:00 +34°C° 0 mm 4 m/s 716 mmHg 14%
    09:00 +36°C° 0 mm 4 m/s 716 mmHg 12%
    10:00 +38°C° 0 mm 4 m/s 716 mmHg 10%
    11:00 +41°C° 0 mm 4 m/s 716 mmHg 9%
    12:00 +42°C° 0 mm 4 m/s 715 mmHg 8%
    13:00 +43°C° 0 mm 4 m/s 715 mmHg 7%
    14:00 +43°C° 0 mm 5 m/s 715 mmHg 7%
    15:00 +43°C° 0 mm 5 m/s 714 mmHg 6%
    16:00 +45°C° 0 mm 6 m/s 714 mmHg 6%
    17:00 +42°C° 0 mm 5 m/s 714 mmHg 7%
    18:00 +40°C° 0 mm 5 m/s 714 mmHg 8%
    19:00 +37°C° 0 mm 4 m/s 714 mmHg 9%
    20:00 +36°C° 0 mm 4 m/s 715 mmHg 10%
    21:00 +35°C° 0 mm 4 m/s 715 mmHg 11%
    22:00 +34°C° 0 mm 4 m/s 715 mmHg 11%
    23:00 +34°C° 0 mm 4 m/s 715 mmHg 12%
    Mostrar mais